Location: Unspecified
(34.4950°S, 58.5160°W)
Time: 14:51:44
(UTC+00:00)

BlueWalker 3 - Pass Details

Date: 16 February 2026
Orbit: 451 x 458 km, 53.2° (Epoch: 4 March)

Event Time Altitude Azimuth Distance (km) Brightness Sun altitude
Exits shadow 06:22:21 11° 157° (SSE) 1,548 5.1 -33.4°
Maximum altitude 06:22:36 11° 153° (SSE) 1,544 5.2 -33.4°
Drops below altitude 10° 06:23:51 10° 133° (SE) 1,627 5.3 -33.2°
Sets 06:27:22 0° 97° (E) 2,497 6.1 -32.7°
